Terminal Aerodrome Forecast
Issued by NWS Pittsburgh, PA

Current Version | Previous Version | Text Only | Print | Product List | Glossary Off
Versions: 1 2 3 4 5 6 7 8 9 10 11 12 13 14 15 16 17 18 19 20 21 22 23 24 25 26 27 28

000
FTUS41 KPBZ 240523
TAFPIT
TAF
KPIT 240523Z 2406/2512 12008G17KT P6SM -RA OVC060
     FM241500 12012G19KT 5SM -RA OVC040
     FM250000 10012KT P6SM VCSH OVC025
     FM250700 06006KT P6SM VCSH OVC008=

USA.gov is the U.S. government's official web portal to all federal, state and local government web resources and services.